[[{"header":{"parameterUnit":"m.s-1","parameterCategory":1,"la1":30.2991,"la2":30.254,"lo1":-89.0895,"lo2":-89.0444,"dy":0.0017,"dx":0.0017,"nx":28,"ny":28,"refTime":"2023-11-09T09:00:00:Z","depth":0,"parameterNumber":2,"parameterNumberName":"U-component_of_WINDS"},"data":[0,0,0,0,0,0,0,0,0,0,0,0,0,0,0,0,0,0,0,0,0,0,0,0,0,0,0,0,0,0,0,0,0,0,0,0,0,0,0,0,0,0,0,0,0,0,0,0,0,0,0,0,0,0,0,0,0,0,-1.9963,-1.9962,0,-1.9909,-1.9909,-1.9908,-1.9805,-1.9803,-1.9801,-1.9799,-1.9747,-1.9747,-1.9748,0,0,0,0,0,0,0,0,0,0,0,0,0,-1.998,-1.998,-1.9963,-1.9962,-1.9962,-1.9909,-1.9909,-1.9908,-1.9805,-1.9803,-1.98,-1.9798,-1.9746,-1.9747,-1.9748,0,0,0,0,0,0,0,0,0,0,0,0,0,-1.9954,-1.998,-1.9963,-1.9904,-1.9898,-1.9909,-1.9908,-1.9908,-1.9806,-1.9803,-1.98,-1.9797,-1.9746,-1.9747,-1.9748,-1.9813,0,0,-1.975,-1.975,0,0,0,0,0,0,0,0,-1.9956,-1.9953,-1.9913,-1.9908,-1.9902,-1.9861,-1.9895,-1.9876,-1.9807,-1.9841,-1.9799,-1.9795,-1.9787,-1.9784,-1.9781,-1.981,-1.9808,-1.975,-1.975,-1.9751,-1.9751,0,0,0,0,0,0,0,-1.9957,-1.9955,-1.9942,-1.9913,-1.9906,-1.9881,-1.9874,-1.9891,-1.9832,-1.9838,-1.983,-1.9825,-1.9783,-1.9781,-1.9779,-1.9807,-1.975,-1.9751,-1.9751,-1.9751,-1.9887,-1.989,0,0,0,0,0,0,-1.9967,-1.9957,-1.9943,-1.994,-1.9922,-1.9883,-1.9876,-1.9877,-1.9831,-1.9821,-1.9828,-1.982,-1.9781,-1.9778,-1.9777,-1.9849,-1.9751,-1.9751,-1.9752,-1.9884,-1.9888,-1.9891,0,0,0,0,0,0,-1.9968,-1.9967,-1.9946,-1.9947,-1.9942,-1.9886,-1.9889,-1.9877,-1.9874,-1.9824,-1.9813,-1.9835,-1.9778,-1.9776,-1.9804,-1.9846,-1.9752,-1.9752,-1.988,-1.9885,-1.9889,-1.9995,0,0,0,0,0,0,-1.9969,-1.9968,-1.9992,-1.9948,-1.9942,-1.9974,-1.9891,-1.9879,-1.9876,-1.9866,-1.9828,-1.9819,-1.9776,-1.9804,-1.9805,-1.9845,-1.9753,-1.9876,-1.9882,-1.9888,-1.9988,-2.0003,-2.0016,0,0,0,0,0,-1.997,-2.0024,-1.9993,-1.9992,-1.997,-1.9976,-1.9973,-1.9921,-1.9879,-1.9903,-1.987,-1.982,-1.9842,-1.9808,-1.9808,-1.9849,-1.9873,-1.9881,-1.9888,-1.9982,-2.0,-2.0016,0,0,0,0,0,0,-2.0075,-2.0017,-1.9982,-2.0024,-2.0006,-1.9959,-1.9986,-1.9943,-1.9937,-1.9928,-1.9865,-1.9857,-1.9894,-1.9875,-1.9838,-1.991,-1.9849,-1.9857,-1.9921,-1.9938,-1.9952,-1.9956,-1.9754,0,0,0,0,0,-2.0103,-2.0111,-2.0061,-2.0102,-2.0095,-2.0043,-2.0043,-2.0005,-1.9984,-1.9976,-1.9945,-1.9928,-1.993,-1.9933,-1.9933,-1.9985,-1.9975,-2.0014,-2.0028,-2.004,-2.0047,-2.0073,-2.0089,-1.9915,-1.9915,-1.9914,0,0,-2.016,-2.013,-2.0139,-2.0123,-2.0104,-2.0115,-2.0037,-2.0052,-2.006,-1.9979,-2.0003,-1.9981,-1.9957,-1.9997,-2.0014,-1.9982,-2.0093,-2.0049,-2.0059,-2.0059,-2.0082,-2.0098,-2.0113,-1.9919,-1.9919,-1.9918,0,0,-2.0271,-2.0249,-2.028,-2.0263,-2.0236,-2.0201,-2.0209,-2.0169,-2.015,-2.0174,-2.0113,-2.0122,-2.0128,-2.0113,-2.0107,-2.0213,-2.0166,-2.0215,-2.0288,-2.0314,-2.0328,-2.034,-2.0377,-2.0391,-2.0222,-2.0222,-2.0222,0,-2.0346,-2.0359,-2.0303,-2.0321,-2.0316,-2.0243,-2.0275,-2.0261,-2.0236,-2.0234,-2.0199,-2.0205,-2.0184,-2.0219,-2.0245,-2.0243,-2.025,-2.0218,-2.033,-2.0342,-2.0352,-2.0387,-2.0401,-2.0228,-2.0228,-2.0227,-2.0226,0,-2.0453,-2.0463,-2.0492,-2.0468,-2.0466,-2.0492,-2.044,-2.0445,-2.0408,-2.0377,-2.0402,-2.0374,-2.0367,-2.0373,-2.0337,-2.0404,-2.0385,-2.0342,-2.0279,-2.0375,-2.0407,-2.042,-2.0237,-2.0235,-2.0233,-2.0231,0,0,-2.0626,-2.0571,-2.0583,-2.0571,-2.0536,-2.0543,-2.0566,-2.0557,-2.0563,-2.0548,-2.0566,-2.0573,-2.0532,-2.0525,-2.0487,-2.051,-2.0595,-2.0463,-2.0461,-2.0487,-2.0666,-2.0698,-2.0715,-2.0564,-2.0566,-2.0568,-2.0668,0,-2.0728,-2.0762,-2.0712,-2.0758,-2.0767,-2.0698,-2.0718,-2.0699,-2.0671,-2.0675,-2.0645,-2.065,-2.0597,-2.0592,-2.0612,-2.058,-2.063,-2.0572,-2.058,-2.0581,-2.0586,-2.0731,-2.0765,-2.086,-2.068,-2.0682,-2.0684,0,-2.085,-2.0841,-2.0887,-2.0849,-2.0851,-2.087,-2.0858,-2.0863,-2.0841,-2.0819,-2.0811,-2.0766,-2.0786,-2.0727,-2.0754,-2.0717,-2.0717,-2.0702,-2.0705,-2.0702,-2.0637,-2.0732,-2.089,-2.0904,-2.0703,-2.0701,-2.07,0,-2.0971,-2.097,-2.0997,-2.099,-2.0946,-2.0961,-2.0944,-2.0918,-2.0917,-2.0907,-2.0906,-2.09,-2.0896,-2.0893,-2.0847,-2.0809,-2.088,-2.0817,-2.0862,-2.0864,-2.0879,-2.0879,-2.1038,-2.0882,-2.0882,-2.0882,-2.0881,0,-2.1089,-2.112,-2.1051,-2.1068,-2.11,-2.1044,-2.1078,-2.1054,-2.1033,-2.1044,-2.0985,-2.0998,-2.0937,-2.0943,-2.0908,-2.0935,-2.0935,-2.0918,-2.0908,-2.0922,-2.0924,-2.092,-2.0912,-2.0885,-2.0885,-2.0884,-2.0883,0,-2.1228,-2.1183,-2.1208,-2.1166,-2.1156,-2.1182,-2.1145,-2.1159,-2.1128,-2.1144,-2.1144,-2.1095,-2.1099,-2.1054,-2.1049,-2.1026,-2.1069,-2.1048,-2.1076,-2.1069,-2.1116,-2.1112,-2.1278,-2.1297,-2.1131,-2.1132,-2.1134,0,-2.1306,-2.1327,-2.1287,-2.129,-2.1275,-2.1281,-2.1279,-2.1225,-2.1226,-2.1202,-2.122,-2.1219,-2.1215,-2.1225,-2.1189,-2.1186,-2.1164,-2.1222,-2.1163,-2.1176,-2.1163,-2.1162,-2.1163,-2.1234,-2.1236,-2.1238,-2.1239,0,-2.1447,-2.1424,-2.1423,-2.1414,-2.1413,-2.1404,-2.1391,-2.1398,-2.1339,-2.1343,-2.1346,-2.1343,-2.1338,-2.1338,-2.1328,-2.131,-2.1266,-2.1259,-2.1269,-2.1283,-2.1297,-2.1289,-2.1109,-2.1255,-2.1253,-2.1252,-2.1251,-2.1251,-2.1557,-2.1573,-2.1547,-2.1548,-2.1532,-2.1522,-2.1533,-2.1503,-2.1504,-2.1495,-2.1464,-2.1473,-2.1451,-2.1432,-2.1419,-2.1425,-2.1397,-2.1412,-2.1415,-2.1419,-2.1427,-2.1298,-2.1424,-2.1423,-2.1423,-2.1422,-2.1422,0,-2.1694,-2.1674,-2.1676,-2.1659,-2.166,-2.1618,-2.1601,-2.1605,-2.1613,-2.1596,-2.1593,-2.1597,-2.1597,-2.1562,-2.1557,-2.1569,-2.1549,-2.157,-2.1568,-2.1564,-2.1454,-2.1445,-2.1587,-2.1587,-2.1587,-2.1587,-2.1587,-2.1587,-2.1766,-2.1791,-2.1765,-2.1782,-2.1762,-2.1769,-2.1763,-2.1754,-2.1739,-2.1746,-2.1745,-2.1722,-2.1698,-2.1692,-2.169,-2.1679,-2.168,-2.1708,-2.1691,-2.1588,-2.1572,-2.1557,-2.1548,-2.1709,-2.171,-2.1801,-2.1802,-2.1802]},{"header":{"parameterUnit":"m.s-1","parameterCategory":1,"la1":30.2991,"la2":30.254,"lo1":-89.0895,"lo2":-89.0444,"dy":0.0017,"dx":0.0017,"nx":28,"ny":28,"refTime":"2023-11-09T09:00:00:Z","depth":0,"parameterNumber":3,"parameterNumberName":"V-component_of_WINDS"},"data":[0,0,0,0,0,0,0,0,0,0,0,0,0,0,0,0,0,0,0,0,0,0,0,0,0,0,0,0,0,0,0,0,0,0,0,0,0,0,0,0,0,0,0,0,0,0,0,0,0,0,0,0,0,0,0,0,0,0,-0.5107,-0.5107,0,-0.5057,-0.5057,-0.5056,-0.5033,-0.5034,-0.5034,-0.5034,-0.4981,-0.498,-0.4978,0,0,0,0,0,0,0,0,0,0,0,0,0,-0.5179,-0.5178,-0.5107,-0.5107,-0.5106,-0.5058,-0.5057,-0.5056,-0.5033,-0.5034,-0.5034,-0.5034,-0.4982,-0.498,-0.4978,0,0,0,0,0,0,0,0,0,0,0,0,0,-0.514,-0.5177,-0.5107,-0.5089,-0.5087,-0.5058,-0.5057,-0.5056,-0.5033,-0.5034,-0.5034,-0.5034,-0.4982,-0.498,-0.4978,-0.4963,0,0,-0.4971,-0.497,0,0,0,0,0,0,0,0,-0.5143,-0.5138,-0.5092,-0.509,-0.5088,-0.5052,-0.5063,-0.5025,-0.5033,-0.5054,-0.5034,-0.5034,-0.5005,-0.5001,-0.4991,-0.4961,-0.4958,-0.4971,-0.497,-0.4969,-0.4968,0,0,0,0,0,0,0,-0.5145,-0.514,-0.5088,-0.5092,-0.5089,-0.5082,-0.5076,-0.5056,-0.5029,-0.5052,-0.505,-0.5045,-0.5003,-0.4993,-0.499,-0.4958,-0.4971,-0.4969,-0.4968,-0.4967,-0.4909,-0.4908,0,0,0,0,0,0,-0.5151,-0.5142,-0.5089,-0.5086,-0.5116,-0.508,-0.5074,-0.5063,-0.5029,-0.5024,-0.5045,-0.5044,-0.4997,-0.4992,-0.4988,-0.4966,-0.4969,-0.4967,-0.4966,-0.4909,-0.4909,-0.4908,0,0,0,0,0,0,-0.5153,-0.5147,-0.5091,-0.5113,-0.5106,-0.5079,-0.5067,-0.5062,-0.5052,-0.5024,-0.5019,-0.5039,-0.4997,-0.4991,-0.4969,-0.4964,-0.4966,-0.4964,-0.4909,-0.4909,-0.4908,-0.4923,0,0,0,0,0,0,-0.5155,-0.5148,-0.5143,-0.5114,-0.5105,-0.5074,-0.5066,-0.5061,-0.5049,-0.5047,-0.5018,-0.5013,-0.4996,-0.4972,-0.4966,-0.4961,-0.4962,-0.491,-0.4909,-0.4909,-0.4923,-0.4923,-0.4923,0,0,0,0,0,-0.5158,-0.5149,-0.5143,-0.5136,-0.5098,-0.5074,-0.5069,-0.505,-0.5048,-0.5042,-0.5024,-0.5014,-0.4965,-0.497,-0.4964,-0.4957,-0.491,-0.4909,-0.4909,-0.4923,-0.4923,-0.4923,0,0,0,0,0,0,-0.5179,-0.5145,-0.5138,-0.512,-0.51,-0.507,-0.5063,-0.5052,-0.5032,-0.5031,-0.5009,-0.5002,-0.4981,-0.4967,-0.4973,-0.4939,-0.4936,-0.4934,-0.4949,-0.4949,-0.495,-0.4953,-0.4961,0,0,0,0,0,-0.5182,-0.5166,-0.5137,-0.5124,-0.5114,-0.509,-0.5079,-0.5066,-0.5044,-0.5036,-0.5016,-0.4994,-0.4973,-0.4961,-0.4941,-0.492,-0.4912,-0.4912,-0.4913,-0.4913,-0.4912,-0.4897,-0.4896,-0.4906,-0.4906,-0.4906,0,0,-0.5187,-0.5166,-0.5158,-0.5127,-0.511,-0.5092,-0.5083,-0.5066,-0.5051,-0.5033,-0.501,-0.4994,-0.4969,-0.4947,-0.4936,-0.4934,-0.4906,-0.4912,-0.4913,-0.4911,-0.4896,-0.4895,-0.4894,-0.4906,-0.4906,-0.4906,0,0,-0.5187,-0.5171,-0.5157,-0.514,-0.5114,-0.5097,-0.5094,-0.5065,-0.5054,-0.5031,-0.5015,-0.4998,-0.4964,-0.4945,-0.4931,-0.4921,-0.491,-0.4915,-0.4916,-0.4902,-0.4901,-0.49,-0.4894,-0.4893,-0.4914,-0.4914,-0.4914,0,-0.5197,-0.5171,-0.5151,-0.5133,-0.5119,-0.5101,-0.5085,-0.5069,-0.5038,-0.5028,-0.5026,-0.4981,-0.4962,-0.4934,-0.4931,-0.4921,-0.4915,-0.4918,-0.4903,-0.4902,-0.4901,-0.4895,-0.4893,-0.4914,-0.4914,-0.4914,-0.4914,0,-0.5182,-0.5164,-0.5156,-0.5126,-0.511,-0.5094,-0.507,-0.5057,-0.5044,-0.5027,-0.5002,-0.4979,-0.4953,-0.4945,-0.4934,-0.4914,-0.4913,-0.4908,-0.4904,-0.4901,-0.4894,-0.4892,-0.4915,-0.4915,-0.4915,-0.4915,0,0,-0.5197,-0.5154,-0.5151,-0.5135,-0.5104,-0.5089,-0.507,-0.5044,-0.5032,-0.501,-0.4992,-0.4962,-0.4956,-0.494,-0.4925,-0.4913,-0.4903,-0.4908,-0.4907,-0.4906,-0.4877,-0.4881,-0.4879,-0.4895,-0.4895,-0.4894,-0.4878,0,-0.5191,-0.5158,-0.5138,-0.5112,-0.5094,-0.5074,-0.5057,-0.5035,-0.5018,-0.4998,-0.4979,-0.4957,-0.4952,-0.4941,-0.4928,-0.4907,-0.4896,-0.4908,-0.4877,-0.4876,-0.4883,-0.4876,-0.488,-0.4867,-0.4876,-0.4876,-0.4875,0,-0.5182,-0.5159,-0.5132,-0.5099,-0.5091,-0.5076,-0.5049,-0.5031,-0.5004,-0.4992,-0.4973,-0.4958,-0.4935,-0.4933,-0.49,-0.4908,-0.4894,-0.4881,-0.488,-0.4876,-0.4875,-0.487,-0.4862,-0.4859,-0.4872,-0.4872,-0.4872,0,-0.5192,-0.5156,-0.5133,-0.5121,-0.5084,-0.5073,-0.5057,-0.503,-0.5015,-0.499,-0.4979,-0.4953,-0.4938,-0.4916,-0.4893,-0.4895,-0.4861,-0.4859,-0.4849,-0.4849,-0.4843,-0.4843,-0.4831,-0.4835,-0.4835,-0.4836,-0.4836,0,-0.5188,-0.5171,-0.5137,-0.5124,-0.5103,-0.5079,-0.5059,-0.5041,-0.5017,-0.4998,-0.4979,-0.4961,-0.4932,-0.491,-0.4892,-0.4865,-0.4859,-0.4847,-0.4843,-0.4849,-0.485,-0.4838,-0.4838,-0.4835,-0.4835,-0.4835,-0.4835,0,-0.5197,-0.5174,-0.5148,-0.5114,-0.5104,-0.5091,-0.506,-0.5045,-0.5026,-0.5002,-0.4994,-0.4964,-0.4937,-0.4911,-0.4875,-0.4863,-0.4835,-0.483,-0.4844,-0.4841,-0.4832,-0.4833,-0.4812,-0.4806,-0.4816,-0.4816,-0.4816,0,-0.5196,-0.5182,-0.5146,-0.5132,-0.5116,-0.5094,-0.5077,-0.5052,-0.5035,-0.5001,-0.4989,-0.4961,-0.4936,-0.4893,-0.4866,-0.4837,-0.483,-0.4825,-0.4826,-0.4831,-0.4828,-0.4828,-0.4826,-0.4825,-0.4825,-0.4825,-0.4825,0,-0.5195,-0.5183,-0.5161,-0.5133,-0.5114,-0.5091,-0.5067,-0.5056,-0.5026,-0.5008,-0.4979,-0.496,-0.4922,-0.4892,-0.486,-0.4841,-0.4827,-0.4824,-0.482,-0.4826,-0.4834,-0.4827,-0.4843,-0.4825,-0.4825,-0.4825,-0.4825,-0.4825,-0.5198,-0.5183,-0.5155,-0.5129,-0.5108,-0.5086,-0.5069,-0.5047,-0.5023,-0.499,-0.4976,-0.4946,-0.4916,-0.4871,-0.4852,-0.4827,-0.4824,-0.4819,-0.4817,-0.4816,-0.4816,-0.4839,-0.4821,-0.4821,-0.4821,-0.4821,-0.4821,0,-0.5194,-0.5175,-0.5151,-0.5118,-0.5097,-0.5086,-0.5058,-0.504,-0.5015,-0.4988,-0.4964,-0.4929,-0.4899,-0.487,-0.4838,-0.4823,-0.4816,-0.4816,-0.4816,-0.4811,-0.4822,-0.4827,-0.4822,-0.4822,-0.4822,-0.4822,-0.4822,-0.4822,-0.519,-0.5165,-0.5149,-0.5112,-0.5092,-0.5063,-0.5047,-0.5025,-0.5004,-0.4966,-0.4941,-0.4922,-0.4893,-0.4858,-0.4829,-0.4821,-0.4809,-0.4811,-0.4801,-0.4811,-0.4811,-0.4811,-0.4816,-0.4809,-0.4809,-0.4792,-0.4792,-0.4792]}]]